Temperature
18 17 17 17 17 17 17 17 17 17 16 16 16 16 16 16 16 16 16 15 15 15 15 15 15 15 15 15 15 15 15 14 14 14 14 14 14 14
17 17 17 17 17 17 17 17 17 17 16 16 16 16 15 15 15 15 15 15 15 15 15 15 15 14 14 14 14 14 14 14 14 14 14 14 14 13
17 17 17 17 17 17 16 17 17 16 16 15 15 15 15 15 15 15 15 14 14 14 14 14 14 14 14 14 14 14 14 13 13 13 13 13 13 13
16 16 16 16 16 16 16 16 16 16 16 15 15 15 14 14 14 14 14 14 14 13 14 14 13 13 13 13 13 13 13 13 13 13 12 12 12 12
16 16 16 16 16 16 16 16 16 15 15 15 14 14 14 14 14 14 13 13 13 13 13 13 13 13 13 13 13 13 12 12 12 12 12 12 12 12
16 15 15 15 15 15 15 15 15 15 15 14 14 13 13 13 13 13 13 13 12 12 12 12 12 12 12 12 12 12 12 12 11 11 11 11 11 11
15 15 15 15 15 15 15 15 14 14 14 13 13 13 13 13 13 12 12 12 12 12 12 12 12 12 12 11 11 11 11 11 11 11 11 11 10 10
14 14 14 14 14 14 14 14 14 14 13 13 12 12 12 12 12 12 12 12 11 11 12 11 11 11 11 11 11 11 11 10 10 10 10 10 10 10
14 14 13 13 13 14 13 13 13 13 13 13 12 12 12 12 12 11 12 11 11 11 11 11 11 11 11 11 11 10 10 10 10 9 9 9 9 9
13 13 13 13 13 13 13 13 12 12 12 12 12 12 11 11 11 11 11 11 11 11 11 10 10 10 10 10 10 10 10 10 9 9 9 9 9 8
13 13 13 12 12 12 12 12 12 12 11 11 11 11 11 11 11 11 11 11 10 10 10 10 10 10 10 10 10 10 10 9 9 9 9 8 8 8
12 12 12 12 12 12 12 11 11 11 11 11 11 11 11 10 10 10 10 10 10 9 10 10 9 9 9 9 9 9 9 9 9 9 8 8 8 8
12 12 12 12 11 11 11 11 11 11 11 11 10 10 10 10 10 10 10 10 10 9 9 9 9 9 9 9 9 9 9 9 8 8 8 8 8 7
12 12 11 11 11 11 11 11 11 11 10 10 10 10 10 9 9 9 9 9 9 9 9 9 9 8 8 8 8 8 8 8 8 8 8 7 7 7
11 11 11 11 11 10 10 10 10 10 10 10 10 9 9 9 9 9 9 9 9 9 9 8 8 8 8 8 8 8 8 8 7 7 7 7 7 7
11 11 11 10 10 10 10 10 10 10 9 9 9 9 9 9 9 9 9 8 8 8 8 8 8 8 8 8 8 7 7 7 7 7 7 7 7 7
11 10 10 10 10 10 10 10 9 9 9 9 9 9 9 9 9 8 8 8 8 8 8 8 8 8 7 7 7 7 7 7 7 7 6 6 6 6
10 10 10 10 10 10 9 9 9 9 9 9 9 8 8 8 8 8 8 8 8 8 8 8 7 7 7 7 7 7 7 7 6 6 6 6 6 6
10 10 10 10 9 9 9 9 9 8 8 8 8 8 8 8 8 8 8 7 7 7 7 7 7 7 6 6 7 7 7 6 6 6 6 6 6 6
10 10 9 9 9 9 8 8 8 8 8 8 8 7 8 8 7 7 7 7 7 7 7 7 7 6 6 6 6 7 6 6 6 6 6 6 6 5
10 9 9 9 8 8 8 8 8 8 7 7 7 7 7 7 7 7 7 7 7 7 7 6 6 6 6 6 6 6 6 6 6 6 6 6 5 5
9 9 8 8 8 8 8 8 7 7 7 7 7 7 7 7 7 7 7 7 6 6 6 6 6 6 6 6 6 6 6 6 6 6 6 5 5 5
9 8 8 8 8 7 7 7 7 7 6 6 6 6 6 6 6 6 6 6 6 6 6 6 6 6 6 6 6 6 6 6 6 6 5 5 5 5
Wind_Speed
1 2 2 2 2 1 1 1 1 1 1 0 1 3 4 5 7 8 8 8 7 5 4 3 3 2 2 2 2 2 2 1 1 2 3 3 4 5
1 2 2 2 1 1 1 1 0 1 1 1 2 3 3 5 8 8 8 9 7 7 6 6 6 6 6 6 6 5 4 4 3 3 2 2 3 3
2 2 2 3 3 3 2 1 1 0 1 1 2 3 4 4 4 5 6 6 7 8 9 9 8 8 8 8 8 7 6 5 5 4 4 4 4 3
5 5 5 4 4 4 3 2 2 1 2 2 2 2 3 3 2 2 4 6 7 8 9 9 10 10 9 9 8 8 7 6 6 5 5 5 5 5
6 6 6 6 5 4 4 4 3 3 3 3 2 2 2 3 3 3 4 4 6 7 9 9 9 9 9 8 8 7 7 6 5 5 4 4 4 4
7 8 8 7 6 5 5 5 4 4 4 3 3 2 2 3 3 2 3 2 3 4 5 7 8 8 7 7 6 5 5 5 4 4 5 5 4 4
7 8 9 11 12 9 7 6 5 4 4 4 4 4 3 3 3 2 3 2 2 2 2 3 5 4 4 5 4 4 4 4 4 4 5 5 5 4
6 5 7 9 11 12 13 13 10 7 5 4 4 4 4 4 3 2 2 1 1 1 1 0 2 2 3 4 4 4 4 3 3 4 4 4 4 4
6 6 7 8 8 6 9 11 11 12 9 5 5 4 4 4 3 3 3 2 1 1 1 1 1 1 1 3 5 4 3 2 1 1 2 3 3 3
7 7 7 7 8 7 7 8 8 8 7 5 5 4 4 4 4 3 2 2 2 3 3 2 1 1 0 2 4 4 3 2 2 2 3 3 4 4
7 8 7 6 9 8 6 6 6 5 8 8 7 6 6 8 8 4 4 3 2 3 4 3 2 2 1 1 2 4 4 3 4 4 4 4 5 5
6 7 11 9 9 9 5 5 5 4 3 4 3 4 5 7 9 6 4 4 3 3 4 4 3 3 2 1 0 1 2 3 3 4 5 5 6 5
6 6 6 9 9 9 7 4 4 3 2 2 3 3 3 4 5 6 5 4 3 3 4 3 4 4 3 3 2 2 1 2 2 3 4 5 6 4
5 5 4 6 8 8 6 5 6 5 2 3 3 3 3 3 3 4 4 4 2 1 2 3 2 3 4 4 4 3 3 4 3 2 3 5 4 4
5 5 4 3 3 4 6 6 5 4 3 4 4 3 3 2 2 2 2 3 3 3 4 3 2 2 3 3 3 4 3 3 3 3 3 3 2 2
3 3 2 2 1 2 2 2 2 3 4 3 3 3 2 2 2 2 2 2 2 2 3 4 4 3 3 4 3 3 3 3 3 2 3 3 4 3
2 1 1 1 2 2 3 3 4 4 4 4 4 3 3 3 3 3 4 4 3 4 4 3 4 5 3 3 3 3 4 3 3 3 3 3 3 2
1 1 2 2 3 3 3 4 4 4 4 4 4 4 4 4 4 3 3 4 4 4 4 4 3 4 4 3 3 3 3 4 4 3 3 3 3 2
1 2 3 3 4 4 4 4 4 4 4 4 4 4 4 4 4 4 4 4 4 4 4 4 4 4 5 5 4 5 4 4 4 3 3 3 3 2
2 3 3 4 4 4 4 4 4 4 4 4 4 5 5 4 4 4 4 5 5 5 4 4 4 4 4 5 5 5 6 4 4 4 3 3 2 3
3 3 4 4 4 4 4 3 4 4 4 4 4 5 5 4 4 5 4 6 6 5 5 4 4 6 5 4 4 4 4 6 5 3 3 3 3 3
3 3 4 4 4 3 3 3 3 4 4 4 5 5 5 5 5 5 5 5 5 6 6 5 4 5 4 5 5 5 5 4 5 6 6 5 3 3
3 3 3 4 4 3 3 3 4 4 4 5 5 5 5 5 5 4 5 5 5 6 7 6 6 5 5 5 5 5 7 6 4 3 4 7 9 10
Wind_Direction
278 287 285 282 280 262 253 218 202 239 260 78 57 48 63 76 85 90 84 85 96 103 111 113 108 95 79 72 72 66 56 44 341 281 275 271 265 265
1 357 340 329 311 296 258 291 288 218 243 55 60 55 55 67 84 87 84 80 87 99 101 100 98 90 86 81 75 70 61 49 39 25 355 309 282 276
19 35 24 10 12 11 25 40 30 109 157 72 54 53 51 56 84 95 91 95 87 98 104 104 103 97 90 84 79 72 64 55 50 42 30 25 16 346
42 39 30 28 32 19 15 24 30 46 116 108 59 45 42 40 81 92 89 89 92 97 106 104 99 94 89 86 81 75 69 61 52 43 32 23 20 14
49 46 36 29 30 32 27 18 20 43 69 94 76 55 42 30 40 59 72 85 96 95 99 106 105 102 100 96 89 83 75 65 52 41 31 22 19 15
57 55 48 42 32 26 34 26 34 52 64 78 79 60 42 15 26 50 55 44 59 79 82 104 110 109 106 99 92 89 82 70 54 38 29 24 19 17
65 68 66 62 55 50 48 37 37 45 58 67 68 56 39 22 11 19 58 67 57 61 84 113 121 110 108 103 103 100 89 74 57 43 34 27 21 13
68 69 72 63 63 64 62 57 54 55 53 60 56 53 35 19 4 24 41 26 33 3 23 95 127 105 129 133 123 115 109 93 70 50 37 22 11 359
59 55 61 58 55 56 61 59 55 52 56 66 64 48 36 13 2 12 13 17 15 351 19 5 60 81 104 131 152 140 131 130 121 28 9 1 345 338
59 58 63 53 44 46 60 60 55 45 48 62 65 55 47 22 10 10 5 19 53 31 25 3 6 356 35 159 184 190 202 227 249 268 289 322 332 316
65 56 60 55 37 46 65 66 64 60 64 74 78 72 53 39 26 17 10 25 37 35 13 1 348 336 327 180 214 235 240 246 252 257 269 284 308 313
80 66 58 51 36 35 51 50 47 31 42 69 77 68 61 49 41 32 19 18 17 22 6 352 348 346 341 341 329 235 277 285 271 264 271 284 295 304
78 69 55 47 44 38 44 44 24 2 2 49 75 65 53 47 41 40 33 28 25 8 1 356 345 345 340 324 321 325 329 329 314 303 297 294 285 279
77 77 72 55 51 44 43 28 17 6 10 46 61 55 47 40 38 39 36 29 29 3 0 0 339 339 334 331 330 334 348 354 1 354 350 335 301 283
75 80 76 60 41 52 49 29 21 17 25 37 44 41 34 30 30 22 18 14 5 15 22 18 347 338 329 321 325 334 335 326 345 351 348 328 307 296
83 94 82 35 28 45 42 36 40 33 25 30 33 28 24 26 13 2 358 352 350 349 7 14 5 343 319 313 320 327 337 330 332 334 325 310 319 331
54 128 129 100 83 74 65 48 40 38 31 20 23 17 14 14 10 13 6 358 0 348 342 342 357 359 337 330 330 331 327 322 318 318 316 309 314 330
13 87 71 66 63 61 57 54 47 33 20 16 21 17 11 6 6 9 5 2 353 342 336 335 344 338 331 334 328 318 315 311 310 308 313 314 314 321
60 64 64 58 50 47 45 43 42 29 16 18 17 11 4 3 2 360 359 354 343 334 334 340 349 344 329 321 315 319 304 305 311 305 301 307 303 298
64 59 65 62 56 46 41 37 34 31 20 15 14 6 360 357 355 353 354 350 339 336 339 339 338 329 313 303 296 297 304 298 305 304 308 314 312 306
56 55 58 57 54 52 43 36 32 31 19 9 7 355 352 353 349 344 345 346 337 336 338 328 320 315 294 298 301 299 297 300 290 284 303 310 309 303
63 66 61 58 55 54 47 31 31 29 15 9 2 351 347 343 341 343 346 343 341 340 335 329 324 323 319 316 315 316 313 309 296 285 282 277 280 294
62 63 61 55 49 43 39 35 35 29 16 2 353 343 341 338 335 342 344 345 344 339 335 336 332 324 323 322 322 323 326 326 319 311 297 284 278 279
Height
1543 1543 1543 1543 1543 1543 1543 1544 1545 1545 1545 1546 1546 1545 1545 1544 1544 1544 1543 1543 1542 1541 1541 1540 1540 1539 1539 1539 1539 1539 1539 1539 1539 1539 1539 1539 1539 1539
1541 1542 1542 1542 1542 1542 1542 1542 1543 1543 1544 1544 1545 1544 1544 1544 1543 1542 1541 1541 1540 1539 1539 1538 1537 1537 1536 1536 1535 1535 1535 1535 1535 1534 1534 1534 1534 1534
1540 1540 1541 1541 1540 1540 1541 1541 1541 1542 1542 1543 1543 1543 1543 1542 1542 1541 1540 1540 1539 1538 1537 1537 1536 1535 1534 1533 1532 1532 1532 1532 1531 1531 1530 1530 1530 1530
1540 1540 1540 1540 1539 1539 1540 1540 1539 1540 1541 1541 1541 1542 1542 1541 1541 1540 1540 1539 1538 1537 1536 1535 1534 1533 1533 1532 1530 1530 1530 1529 1529 1528 1527 1527 1526 1526
1539 1539 1539 1539 1539 1539 1539 1539 1539 1539 1539 1540 1540 1541 1540 1540 1540 1540 1539 1538 1537 1537 1536 1534 1533 1533 1532 1531 1530 1529 1528 1527 1526 1526 1525 1524 1523 1522
1539 1539 1539 1539 1539 1538 1538 1538 1538 1539 1539 1539 1539 1539 1539 1539 1539 1539 1538 1537 1537 1536 1535 1534 1533 1532 1531 1530 1529 1528 1527 1526 1524 1524 1522 1521 1520 1519
1539 1539 1539 1539 1539 1539 1538 1538 1538 1538 1538 1538 1538 1538 1538 1538 1538 1538 1537 1537 1536 1536 1535 1534 1533 1532 1531 1529 1528 1527 1526 1525 1523 1522 1520 1519 1518 1517
1540 1540 1540 1540 1540 1539 1539 1538 1538 1538 1538 1538 1538 1538 1538 1537 1537 1537 1536 1536 1536 1536 1535 1534 1533 1532 1530 1529 1529 1527 1526 1524 1522 1521 1519 1517 1516 1515
1541 1541 1541 1541 1540 1540 1539 1539 1539 1539 1539 1539 1538 1538 1538 1538 1537 1536 1536 1536 1535 1535 1535 1534 1533 1532 1531 1530 1529 1527 1526 1524 1522 1520 1518 1516 1515 1513
1542 1542 1541 1541 1541 1541 1540 1540 1539 1539 1540 1540 1539 1539 1539 1538 1538 1538 1537 1536 1536 1535 1535 1534 1533 1532 1530 1529 1528 1527 1525 1523 1521 1519 1518 1516 1514 1512
1543 1543 1543 1542 1542 1542 1541 1541 1541 1541 1541 1541 1541 1540 1540 1539 1538 1538 1536 1536 1535 1535 1534 1534 1532 1531 1530 1529 1527 1526 1524 1523 1520 1518 1516 1514 1513 1511
1544 1544 1544 1544 1543 1543 1543 1542 1542 1542 1543 1542 1542 1542 1541 1540 1539 1538 1537 1536 1535 1535 1534 1533 1532 1530 1529 1528 1527 1525 1523 1521 1520 1517 1515 1513 1511 1510
1544 1544 1545 1545 1545 1544 1544 1544 1544 1544 1544 1544 1543 1543 1542 1541 1540 1539 1538 1537 1536 1535 1534 1533 1531 1530 1529 1527 1526 1524 1522 1520 1518 1516 1514 1512 1510 1508
1546 1546 1546 1546 1546 1546 1546 1546 1546 1545 1545 1545 1544 1544 1543 1542 1541 1540 1539 1538 1537 1535 1534 1533 1531 1529 1528 1526 1525 1523 1521 1519 1517 1515 1513 1510 1508 1506
1547 1548 1548 1548 1548 1547 1547 1547 1547 1547 1546 1546 1545 1545 1544 1543 1542 1541 1539 1538 1537 1535 1534 1532 1531 1529 1527 1525 1523 1522 1520 1517 1516 1513 1511 1509 1506 1504
1549 1549 1550 1550 1550 1549 1549 1549 1548 1548 1547 1547 1546 1546 1545 1544 1542 1541 1539 1538 1537 1535 1534 1532 1530 1528 1526 1524 1522 1520 1519 1516 1514 1511 1509 1507 1505 1502
1550 1550 1551 1551 1551 1551 1550 1550 1549 1549 1548 1548 1547 1546 1545 1543 1542 1541 1539 1538 1536 1534 1533 1531 1529 1527 1525 1523 1521 1518 1517 1515 1512 1510 1507 1505 1502 1500
1552 1552 1552 1553 1553 1552 1552 1551 1550 1549 1549 1548 1547 1546 1545 1544 1542 1541 1539 1537 1536 1534 1532 1530 1527 1525 1523 1521 1520 1517 1515 1512 1510 1508 1505 1503 1500 1498
1553 1553 1554 1554 1554 1553 1553 1552 1551 1550 1549 1548 1547 1546 1545 1544 1542 1540 1539 1537 1535 1532 1531 1528 1526 1523 1521 1518 1517 1515 1513 1510 1508 1505 1503 1501 1498 1496
1554 1554 1554 1554 1554 1553 1553 1552 1551 1550 1549 1548 1547 1546 1545 1543 1542 1540 1538 1536 1534 1531 1529 1527 1524 1522 1519 1517 1514 1512 1511 1508 1506 1503 1500 1498 1496 1494
1555 1555 1555 1555 1554 1554 1553 1552 1551 1551 1549 1548 1547 1546 1544 1543 1541 1539 1537 1535 1533 1530 1527 1524 1522 1520 1517 1515 1512 1510 1508 1506 1504 1501 1498 1495 1493 1491
1555 1555 1555 1555 1554 1553 1553 1552 1551 1550 1549 1548 1546 1545 1543 1542 1540 1538 1536 1534 1531 1528 1526 1523 1520 1517 1515 1513 1510 1507 1505 1503 1501 1498 1496 1494 1491 1488
1555 1555 1555 1554 1554 1553 1553 1552 1551 1550 1548 1547 1545 1544 1542 1541 1539 1537 1535 1532 1530 1527 1524 1521 1518 1515 1513 1511 1508 1506 1503 1500 1498 1495 1493 1491 1489 1487